EHI
0 0 0 0 0 0 0 0 0 0 1 3 5 6 5 5 6 6 6 9 12 13 14 15 14 13 11 12 13 12 11 10 8 8 8 7 6 5 4 3 2 3 3 3
0 0 0 0 0 0 0 0 0 0 1 3 4 4 4 5 6 6 5 6 9 10 12 13 13 11 10 10 11 11 9 7 6 5 5 4 3 2 3 3 2 2 2 2
0 0 0 0 0 0 0 0 0 1 2 3 2 3 4 6 6 5 4 5 6 9 11 12 12 10 9 9 9 8 6 4 2 2 2 2 1 0 1 1 1 1 1 1
0 0 0 0 0 0 0 0 0 1 2 2 2 4 5 6 5 4 4 5 8 9 10 11 11 10 10 8 7 5 3 1 1 0 0 0 0 0 0 0 0 0 0 0
0 0 0 0 0 0 0 0 0 1 1 1 3 5 5 4 4 3 3 5 8 9 9 9 9 9 8 6 4 3 1 0 0 0 0 0 0 0 0 0 0 0 0 0
0 0 0 0 0 0 0 0 0 0 1 2 3 4 4 3 2 2 3 4 5 7 8 8 8 8 6 4 3 2 1 0 0 0 0 0 0 0 0 0 0 0 0 1
0 0 0 0 0 0 1 1 1 0 1 2 3 4 3 2 2 3 3 3 4 6 7 7 6 6 4 2 1 1 0 0 0 0 0 0 0 0 0 0 0 0 0 1
0 1 1 1 1 2 3 2 1 1 1 3 3 3 3 3 3 3 3 3 5 7 7 7 6 4 2 1 0 0 0 0 0 0 0 0 0 0 1 1 1 0 0 1
0 1 3 3 3 4 4 3 1 1 2 3 3 2 3 4 4 4 4 4 5 5 6 6 5 3 2 0 0 0 0 1 1 0 0 1 1 1 2 2 2 1 0 1
0 1 1 2 2 3 3 3 2 2 2 2 2 2 3 4 3 3 4 4 4 4 4 4 3 2 1 0 0 0 0 1 1 0 0 1 2 2 2 3 3 1 0 1
0 1 1 0 1 1 2 2 2 1 1 1 1 2 3 4 4 4 4 4 5 4 3 2 1 1 1 0 0 0 0 1 1 0 0 1 2 2 2 3 2 1 0 0
1 1 1 0 0 0 1 1 1 0 0 0 1 2 3 4 4 4 3 5 6 5 3 1 0 0 0 0 0 1 1 0 0 0 0 0 1 1 1 1 1 0 0 0
2 1 1 0 0 0 0 0 0 0 0 0 1 3 3 3 3 2 3 4 5 4 2 0 0 0 0 0 1 2 2 1 0 0 0 0 0 0 0 0 0 0 0 0
2 1 0 0 0 0 0 0 0 0 0 1 2 3 3 2 1 0 1 2 3 2 1 0 0 0 1 1 2 3 2 1 0 0 0 0 0 0 0 0 0 0 0 0
1 0 0 1 1 1 0 0 0 0 0 1 3 3 2 1 0 0 0 1 2 2 1 0 0 0 1 2 3 3 1 0 0 0 0 0 0 0 0 0 0 0 0 0
1 0 0 2 2 1 0 0 0 0 1 2 3 2 1 0 0 0 0 1 2 2 1 1 1 0 1 1 2 2 1 0 0 0 0 0 0 0 0 0 0 0 0 0
1 0 1 3 3 1 0 0 0 0 1 2 3 1 0 0 0 0 0 0 1 2 2 2 2 1 0 0 1 1 0 0 0 0 0 0 0 0 0 0 0 0 0 0
1 0 1 3 3 1 0 0 0 0 1 2 2 1 0 0 0 0 0 0 0 1 3 3 2 1 1 1 0 0 0 0 0 0 0 0 0 0 0 0 0 0 0 0
0 0 1 2 2 1 0 0 0 0 1 2 2 1 1 0 0 1 1 1 0 1 4 4 2 1 1 1 0 0 0 0 0 0 0 0 0 0 0 0 0 0 0 0
0 0 0 1 1 1 0 0 0 0 0 1 1 1 1 0 0 1 1 1 1 2 4 4 2 2 1 1 0 0 0 0 0 0 0 0 0 0 0 0 0 0 0 0
1 0 0 0 0 0 0 0 0 0 0 0 0 1 1 0 0 0 1 1 2 2 2 1 1 1 1 0 0 0 0 0 0 0 0 0 0 0 0 0 0 0 0 0
1 0 0 0 0 0 0 0 0 0 0 0 0 0 0 0 0 0 1 1 1 1 0 0 0 0 0 0 0 0 0 0 0 0 0 0 0 0 0 0 0 0 0 0
1 0 1 1 0 0 0 0 0 0 0 0 0 0 0 0 0 0 0 0 0 0 0 0 0 0 0 0 0 0 0 0 0 0 0 0 0 0 0 0 0 0 0 0
0 0 1 1 1 0 0 0 0 0 0 0 0 0 0 0 0 0 0 0 0 0 0 0 0 0 0 0 0 0 0 0 0 0 0 0 0 0 0 0 0 0 0 0
0 0 1 1 1 0 0 0 0 0 0 0 0 0 0 0 0 0 0 0 0 0 0 0 0 0 0 0 0 0 0 0 0 0 0 0 0 0 0 0 0 0 0 0
0 0 0 0 0 0 0 0 0 0 0 0 0 0 0 0 0 0 0 0 0 0 0 0 0 0 0 0 0 0 0 0 0 0 0 0 0 0 0 0 0 0 0 0
0 1 1 1 0 0 0 0 0 0 0 0 0 0 0 0 0 0 0 0 0 0 0 0 0 0 0 0 0 0 0 0 0 0 0 0 0 0 0 0 0 0 0 0
Wind_Speed
9 11 9 8 8 8 7 6 5 4 1 2 4 3 4 4 4 4 3 4 5 5 4 4 4 4 4 4 4 3 3 2 2 2 2 2 3 3 3 4 4 3 3 3
10 11 9 9 8 8 7 6 5 2 2 6 5 3 4 3 4 3 3 4 5 4 4 4 4 4 4 4 4 3 3 3 3 2 2 2 3 3 3 4 4 3 4 4
10 10 9 8 6 6 5 4 4 2 5 5 4 3 3 4 4 4 4 4 4 4 4 3 4 4 4 4 4 3 3 3 3 3 3 3 4 4 3 4 4 4 4 4
9 9 10 4 1 2 2 3 5 6 6 5 4 4 6 5 5 5 5 5 4 4 4 3 4 4 4 4 4 4 4 4 4 4 4 3 3 4 4 4 4 4 4 4
8 9 7 4 1 1 1 2 5 6 5 5 5 5 7 7 6 5 5 5 4 3 3 3 4 4 5 5 5 5 5 5 5 4 4 4 4 4 4 4 4 4 4 4
8 10 7 2 4 3 1 2 4 5 3 3 2 2 4 5 5 5 4 4 3 3 3 3 3 4 4 4 5 5 5 5 4 4 3 4 4 4 4 4 4 5 5 4
10 10 3 4 4 1 2 2 4 3 2 2 3 4 4 4 4 4 4 4 3 3 3 3 3 3 4 4 5 5 6 5 4 4 3 4 3 3 4 4 5 5 5 4
7 8 1 5 3 3 4 4 3 2 3 4 5 5 4 4 3 3 4 4 3 2 3 3 3 3 4 5 5 5 5 5 5 4 5 4 3 3 4 4 5 5 4 3
2 2 4 5 5 5 4 3 3 3 4 4 4 3 4 3 3 3 3 3 3 3 3 3 3 4 5 5 5 5 5 5 5 5 4 4 3 4 4 3 3 4 3 3
1 3 2 4 4 4 4 4 3 4 5 4 4 4 3 3 3 3 3 3 3 3 4 4 4 5 5 6 6 6 5 5 4 4 4 4 3 4 3 3 3 3 3 3
3 2 2 2 3 3 4 3 4 5 4 4 3 3 3 2 2 2 3 3 3 3 3 4 4 4 5 6 6 6 6 6 5 5 5 3 3 3 3 2 2 3 3 3
1 2 1 2 2 3 3 3 4 4 4 3 3 2 2 2 2 2 2 2 3 3 4 4 5 5 4 5 5 5 6 6 6 6 4 4 3 3 3 4 4 4 4 4
2 2 2 3 3 3 3 3 3 3 3 3 3 2 2 2 2 2 3 3 4 4 4 4 5 5 4 5 5 5 6 6 6 6 6 4 4 3 3 3 5 5 6 6
3 2 2 3 3 3 3 3 3 3 3 2 2 2 1 2 2 3 4 4 5 5 5 5 5 5 5 5 5 5 6 7 7 6 6 5 5 4 4 3 3 2 4 6
2 2 2 2 3 3 3 2 2 2 1 1 1 1 1 2 3 4 4 4 5 6 6 6 6 6 5 6 5 6 7 6 5 6 6 6 5 5 4 4 2 2 1 2
1 2 2 2 3 3 2 1 1 0 0 0 1 1 2 3 3 4 4 5 5 6 6 6 6 6 6 6 6 5 5 7 7 7 7 6 5 5 5 4 3 3 2 1
3 2 2 2 2 1 1 1 1 1 1 2 2 2 3 4 4 4 5 5 5 6 5 5 6 6 7 6 7 6 6 6 7 7 6 5 5 5 5 4 4 3 2 1
3 2 1 1 1 1 1 2 1 2 2 3 3 3 3 4 5 5 6 6 6 6 5 5 5 7 7 7 6 7 7 6 5 5 5 4 5 5 5 4 4 4 3 2
2 2 2 2 1 1 2 2 2 2 3 3 4 4 4 5 6 6 6 6 7 6 4 5 6 7 7 6 7 6 7 7 6 5 4 5 5 5 5 4 4 4 4 4
1 1 1 2 2 1 2 3 3 3 3 4 5 5 5 6 6 6 6 6 5 4 4 5 6 6 6 5 7 8 8 7 6 5 4 4 5 5 4 4 4 4 4 3
1 1 1 1 1 1 2 3 3 4 4 5 6 6 6 6 6 6 5 5 3 3 5 5 5 5 5 7 9 8 7 6 5 4 4 4 5 5 4 4 3 3 3 3
2 1 2 1 1 2 2 3 4 5 5 5 6 7 6 6 6 5 4 4 4 3 4 5 4 5 6 9 8 7 7 6 5 4 4 4 4 4 5 4 3 2 3 3
4 4 2 2 2 3 3 4 5 5 5 6 6 6 6 5 5 5 5 3 4 4 5 5 4 5 7 8 8 7 6 5 5 4 4 4 4 3 4 4 3 2 2 3
5 5 5 4 4 4 5 5 5 5 6 6 6 5 5 5 4 4 4 3 3 4 5 4 5 7 7 7 7 6 5 4 4 5 5 5 4 4 4 4 4 3 2 3
6 6 6 5 5 5 5 5 5 5 6 5 5 5 5 4 5 5 4 4 4 5 5 4 5 6 7 6 5 4 4 4 4 5 4 4 5 4 4 4 4 3 3 3
5 5 5 5 5 5 5 5 4 4 5 5 4 4 4 4 5 5 4 5 5 5 5 3 3 4 5 5 5 4 4 4 4 4 4 4 5 5 5 5 6 5 4 3
6 5 4 5 5 5 5 5 5 5 4 4 5 4 5 5 5 5 5 5 4 4 4 4 4 4 5 4 4 4 4 4 4 4 4 4 4 4 4 4 4 4 4 4
Wind_Direction
270 276 283 277 279 280 275 273 275 287 209 129 120 118 108 100 92 66 47 26 31 33 21 16 12 9 1 356 350 353 353 344 333 313 297 303 304 302 300 294 288 286 276 270
278 275 272 275 275 272 275 280 281 303 81 87 87 83 99 101 95 77 54 37 34 26 20 15 9 357 357 355 348 354 346 333 326 316 307 308 300 298 303 299 296 286 278 274
276 278 278 274 271 266 275 285 310 356 78 84 72 63 62 73 70 59 48 38 32 30 24 11 358 349 347 346 347 344 339 338 334 326 329 327 317 322 316 308 303 297 291 283
273 276 268 277 328 306 321 29 51 79 103 122 113 95 88 79 66 50 30 28 34 33 25 6 358 354 348 349 345 340 341 338 334 332 336 332 325 322 313 306 302 295 290 284
272 271 266 277 331 359 358 45 66 80 86 90 90 102 89 66 56 47 36 35 34 33 25 9 5 357 350 350 345 341 341 337 339 336 332 329 323 314 307 306 304 298 294 288
272 279 285 350 57 17 284 138 67 81 94 98 97 111 88 64 53 39 36 33 25 22 13 5 2 353 340 341 341 342 336 330 331 330 327 321 309 306 309 305 301 298 298 295
259 268 284 42 54 336 272 62 73 77 101 95 67 59 89 84 62 47 38 29 20 14 3 354 344 335 325 332 336 332 326 324 327 329 319 305 305 311 308 305 301 295 293 289
259 266 275 54 46 39 68 70 83 101 97 89 89 95 97 88 65 46 34 22 12 5 353 345 338 328 321 329 329 325 324 324 324 317 308 308 306 300 294 295 300 297 294 297
359 44 73 62 74 93 111 107 105 109 101 108 108 106 100 85 64 42 28 20 360 344 343 343 343 335 326 327 323 318 316 316 313 306 296 291 287 290 294 295 300 306 308 309
213 145 125 95 87 86 84 85 87 90 96 97 91 89 81 69 49 34 20 11 355 349 340 333 332 333 328 328 327 318 315 310 303 298 293 285 286 289 294 306 308 315 326 329
228 169 158 112 95 87 80 91 94 95 99 95 89 87 75 58 40 19 7 358 353 345 329 326 330 330 328 331 328 328 325 315 308 300 292 282 278 290 296 302 300 295 314 321
247 139 171 132 112 108 104 100 100 104 104 98 89 76 63 46 29 4 348 347 344 339 334 328 326 323 328 334 330 323 318 315 308 300 292 287 280 282 287 271 273 269 263 271
85 77 104 127 123 112 119 117 112 111 110 102 89 68 44 27 8 347 338 337 331 328 324 322 324 327 335 332 323 315 315 311 307 305 301 296 295 289 280 274 266 265 268 269
113 125 165 151 135 138 132 123 118 118 105 85 71 49 23 359 346 334 331 328 324 321 313 319 323 329 331 322 314 310 308 306 306 306 306 308 308 300 286 271 269 269 257 254
147 144 140 138 148 148 140 136 133 120 106 93 69 32 349 334 324 319 321 323 320 313 314 321 323 326 320 315 312 308 305 306 309 308 304 301 301 299 298 295 295 288 277 264
197 148 148 156 161 160 154 162 187 180 12 351 0 340 320 312 308 309 314 313 315 314 318 318 318 318 318 318 312 301 296 304 305 303 304 306 309 310 313 312 307 293 282 300
194 187 180 171 162 164 196 232 249 279 292 298 299 298 301 304 304 307 309 310 312 309 313 321 322 323 318 316 313 307 306 308 305 305 305 316 320 317 315 314 312 313 319 323
183 174 173 182 190 248 265 278 285 294 292 288 281 280 290 295 296 300 302 304 302 300 314 325 330 323 313 312 315 307 308 306 307 306 311 319 320 316 315 317 325 337 336 322
194 193 190 200 213 253 287 292 301 309 310 308 302 300 296 295 296 298 299 298 296 297 312 320 316 304 303 315 318 297 295 300 303 309 318 322 309 311 319 324 332 334 324 327
201 204 207 223 238 245 285 304 305 299 300 303 296 295 296 296 298 296 296 292 289 298 301 310 300 297 301 315 311 297 298 302 305 311 315 316 315 318 317 317 322 321 328 341
277 259 247 247 291 307 328 328 313 301 300 298 299 296 296 299 300 300 295 294 307 324 307 299 293 306 317 318 298 292 297 302 305 308 314 315 313 318 320 316 316 325 334 340
318 284 286 308 318 313 322 319 308 301 302 300 298 298 296 295 296 296 291 291 303 316 300 301 310 333 326 310 298 296 301 308 312 318 320 319 322 324 319 315 321 335 335 338
336 326 314 321 317 309 306 300 297 299 301 298 296 295 295 290 285 287 290 294 305 311 300 307 315 306 304 299 298 299 307 316 319 319 319 322 322 318 321 326 332 339 342 332
332 330 332 324 312 304 299 299 303 305 301 294 292 296 295 289 289 292 301 309 324 314 302 302 284 286 287 287 294 303 313 322 326 326 326 324 330 338 343 340 332 333 332 317
319 317 312 307 300 291 291 294 297 296 292 292 297 301 301 308 309 313 314 311 304 293 296 296 285 280 282 293 304 311 317 329 332 327 330 338 340 338 339 337 340 343 338 339
293 286 290 290 291 290 285 287 287 286 290 296 299 305 307 305 306 311 315 316 316 308 303 301 288 283 293 304 310 311 315 321 320 324 335 334 334 335 339 341 341 344 345 353
277 273 271 273 272 272 278 282 285 287 292 298 302 303 301 304 310 314 311 312 310 302 304 304 298 294 298 304 311 319 324 328 334 338 339 338 337 338 341 342 340 340 345 347